Dewpoint
16 12 10 11 13 15 15 14 13 14 13 13 14 15 15 15 15 16 16 17 18 17 17 16 14 13 12 12 14 14 14 20 27 40 51 56 58 58 59 59 60 60 61 62 63 63 64 64 63 62 63 63 63 63 63 63 63 63 63 64 65 65 65 65 65 65 65 64 64 64 64 64 64 65 65 66 66 66 66 66 66 66 66 65 66 66
11 11 10 9 10 14 15 15 16 14 14 13 12 12 12 13 13 14 14 15 15 14 14 14 13 13 12 12 14 14 15 12 18 30 47 54 57 58 59 59 59 60 61 62 62 63 64 64 63 63 63 63 62 63 63 63 63 63 63 64 64 65 65 65 65 65 65 64 64 64 64 62 63 65 66 66 66 66 66 66 66 66 65 65 65 66
15 14 11 11 11 12 14 14 15 14 14 14 13 13 12 12 12 12 12 13 13 12 12 13 13 13 15 15 14 14 14 14 14 28 40 51 56 58 59 59 59 60 60 61 62 63 64 63 63 62 62 62 62 62 63 63 63 63 63 63 64 64 64 64 65 65 64 64 64 64 63 63 62 63 64 67 67 66 65 65 65 65 65 65 65 65
15 14 15 14 13 12 12 13 13 13 13 13 13 13 12 13 12 11 11 11 11 12 11 12 11 13 14 16 18 17 16 15 22 31 36 45 54 58 59 59 59 59 60 61 62 63 64 63 63 62 62 62 62 62 62 63 63 63 63 63 64 64 64 64 64 65 64 64 64 64 64 63 63 63 64 65 65 65 65 65 65 64 65 64 64 65
15 15 13 13 12 11 11 11 12 13 12 13 12 11 11 11 11 12 12 12 11 11 11 10 10 10 12 12 13 16 19 19 21 30 38 40 49 56 59 59 59 59 60 61 62 63 63 63 62 62 62 62 62 62 62 62 62 63 63 63 63 64 64 64 65 64 64 64 63 64 63 64 63 64 64 65 65 65 65 65 64 64 64 64 64 64
15 16 18 15 11 10 11 10 11 12 12 12 12 12 11 11 11 11 11 10 10 11 10 8 7 8 12 14 12 14 18 16 16 18 34 40 45 50 55 58 59 60 60 61 61 62 63 63 62 62 62 62 62 62 62 63 63 62 63 63 63 64 64 64 64 64 64 64 63 63 63 62 62 62 63 64 64 64 64 64 64 64 64 64 63 62
15 17 13 12 12 10 8 7 8 11 11 13 12 12 12 11 11 11 10 9 9 8 9 9 6 7 17 14 16 17 16 15 15 14 23 37 44 48 53 58 59 59 60 61 61 62 63 63 62 62 62 62 62 62 62 62 62 62 62 63 63 63 64 64 64 64 64 63 63 63 63 63 62 62 63 65 65 65 64 64 63 63 62 62 62 61
14 13 13 12 11 10 8 6 6 6 9 9 10 11 12 11 11 10 10 10 9 12 10 9 8 7 6 13 16 16 18 15 14 14 18 29 38 44 50 57 59 59 60 61 61 62 63 63 62 62 62 62 62 62 62 62 62 62 62 63 63 63 64 64 64 64 64 63 63 63 63 63 62 62 63 63 65 64 64 63 62 62 61 60 60 59
18 16 10 9 10 7 6 6 5 4 3 4 5 7 8 10 11 11 10 10 9 9 8 9 8 6 6 8 14 13 12 14 15 14 14 23 32 38 45 55 59 60 61 61 61 62 62 62 62 62 62 62 62 62 62 62 62 62 62 63 63 63 64 64 64 64 64 63 63 63 63 63 63 63 63 63 64 64 63 62 60 61 59 59 58 58
21 19 17 17 15 14 12 9 7 5 5 7 8 9 10 10 10 10 9 9 10 9 8 8 8 5 4 12 10 12 12 12 13 14 13 20 25 32 40 50 57 60 61 62 62 62 62 62 62 62 62 62 62 62 63 62 62 62 62 63 63 63 64 64 64 64 63 63 63 63 63 62 62 62 62 63 64 63 62 61 60 59 58 58 57 57
24 27 28 22 18 14 13 13 12 11 11 11 10 8 6 4 6 11 12 10 10 9 9 8 8 6 4 9 9 10 15 17 16 16 15 16 22 26 34 45 54 58 60 62 62 62 63 63 63 63 62 62 62 62 62 62 62 62 62 62 63 63 64 64 64 64 63 63 63 63 62 62 62 62 62 63 63 62 61 60 58 58 57 57 56 56
23 22 22 20 23 19 15 14 14 12 12 10 6 6 5 7 14 11 12 13 9 8 9 10 9 8 6 7 11 15 19 18 18 15 15 15 16 21 29 40 50 56 59 61 62 62 63 63 62 62 62 62 62 62 62 62 62 62 62 63 63 64 64 64 64 64 63 63 63 63 63 62 63 62 62 62 62 62 61 59 58 57 56 55 55 55
21 21 21 20 25 19 17 14 14 12 10 8 6 11 7 7 10 6 10 11 9 6 10 9 9 8 8 8 11 10 12 12 15 15 15 15 14 18 24 32 44 53 57 60 62 62 63 62 62 62 62 62 62 62 62 62 62 62 62 63 63 63 64 64 64 64 63 63 62 62 62 62 63 63 63 63 62 62 61 59 57 56 56 55 54 54
20 21 20 19 19 23 16 14 13 12 9 7 5 9 7 3 5 5 12 14 14 13 10 9 11 6 9 11 11 10 10 9 10 14 15 15 16 17 23 29 39 50 56 59 61 62 62 63 63 62 62 62 62 62 62 62 62 62 62 63 63 63 64 64 64 64 63 63 63 63 63 63 63 63 63 63 62 61 60 59 57 56 56 54 54 53
13 16 17 19 17 19 17 16 14 10 13 6 8 12 17 15 12 8 11 8 10 12 10 10 9 12 8 17 18 11 10 9 8 9 11 15 15 16 20 29 37 48 55 58 61 62 62 63 63 63 63 62 62 62 62 62 62 62 62 63 63 63 64 64 64 64 63 63 63 63 63 63 63 63 63 63 62 61 60 59 57 56 55 54 53 53
20 18 19 19 17 20 19 19 14 10 9 9 7 10 8 7 20 7 13 17 17 15 15 16 13 20 11 23 18 17 14 12 17 21 24 19 18 17 19 30 38 48 54 58 60 61 62 62 63 63 63 63 62 62 62 62 62 62 62 63 63 63 64 64 64 64 63 63 63 63 62 63 63 63 63 62 62 61 60 59 58 57 56 54 53 53
21 19 23 23 21 20 20 19 15 9 8 17 4 6 6 15 14 13 14 20 21 17 14 15 19 22 24 19 17 13 12 12 14 18 19 19 19 21 20 28 39 48 54 57 60 61 62 62 63 63 63 63 62 62 62 62 62 62 62 63 63 63 64 64 64 64 64 63 63 62 63 63 62 62 62 62 61 60 59 58 57 57 55 54 53 54
19 19 23 22 20 21 19 18 15 15 11 11 10 14 19 24 24 17 10 10 14 12 13 18 14 16 15 15 30 16 16 17 18 17 16 20 20 20 21 23 35 46 53 57 60 61 62 62 62 63 63 63 63 62 62 62 63 63 63 63 63 63 64 64 64 64 64 63 63 62 62 62 62 62 62 61 60 60 59 58 57 56 54 53 54 54
24 19 21 22 22 22 24 22 18 16 16 9 6 20 15 17 15 19 14 8 9 8 8 15 18 18 15 17 19 15 18 17 18 21 24 25 25 24 21 21 30 44 53 58 59 61 61 62 62 62 63 63 63 63 63 63 63 63 63 63 63 63 64 64 64 64 64 63 63 63 62 62 62 62 62 61 60 59 58 58 56 55 55 54 54 54
27 19 20 21 19 23 21 18 16 14 13 15 14 14 20 19 20 17 13 19 18 9 10 14 16 14 20 16 19 21 23 26 26 28 30 31 34 36 32 26 27 45 53 57 59 60 61 62 62 62 63 63 63 63 63 63 63 63 63 63 63 64 64 64 64 64 64 63 63 63 63 62 62 62 61 61 60 59 59 58 57 55 54 53 54 53
27 27 17 21 23 22 17 19 18 15 12 12 12 15 23 20 22 20 28 21 17 9 10 10 10 16 21 30 24 26 30 30 30 33 36 38 39 40 38 32 29 46 53 57 59 60 61 61 62 62 63 63 63 63 63 63 63 63 63 63 63 63 64 64 64 64 64 64 63 63 62 62 62 62 61 61 60 59 59 58 57 55 54 53 53 52
27 26 21 23 22 21 20 21 18 16 15 14 14 12 14 15 11 11 14 23 20 17 15 12 12 18 25 34 32 32 33 34 36 37 38 39 40 41 41 39 32 47 54 57 59 60 60 61 62 62 63 63 63 63 63 64 63 63 63 63 63 64 64 64 64 64 64 64 63 63 63 62 62 62 61 61 60 60 59 58 57 55 54 53 53 52
34 31 28 23 23 22 22 23 24 24 24 22 12 12 11 18 22 17 11 17 22 21 21 21 15 20 30 35 31 29 31 34 35 39 39 39 40 40 41 42 38 46 54 56 58 60 60 61 62 62 62 63 63 63 63 64 64 63 63 64 64 64 64 64 64 64 64 64 63 63 63 62 62 62 61 61 60 60 59 58 57 55 54 53 52 51
36 29 25 26 26 26 26 27 27 27 25 25 24 20 14 14 15 16 20 24 18 22 19 18 17 20 31 32 28 28 30 33 35 37 38 39 40 40 40 42 41 46 53 56 58 59 60 61 61 62 62 63 63 63 63 64 64 64 64 64 64 63 64 64 64 64 64 64 63 63 63 62 62 62 61 61 60 60 59 58 56 55 54 53 52 51
28 31 28 24 22 17 19 20 22 26 26 24 18 18 17 15 16 23 29 31 20 24 20 18 16 16 26 27 27 28 30 31 32 34 39 38 38 39 39 41 44 46 53 56 57 59 60 60 61 62 62 63 63 63 63 64 64 64 64 64 64 64 64 64 64 64 64 63 63 63 63 62 62 61 61 61 60 60 59 57 56 55 54 53 51 50
32 30 27 22 17 8 6 7 11 15 21 22 20 16 17 15 19 22 19 22 17 24 23 19 19 23 24 25 25 27 29 32 33 34 37 38 38 38 40 41 45 45 53 55 57 58 59 60 61 62 62 63 63 63 63 63 64 64 64 64 64 63 64 64 64 64 63 63 63 63 63 62 62 61 61 61 60 60 58 57 56 55 54 52 51 50
30 32 31 28 25 20 21 21 22 28 26 14 16 15 17 18 18 21 26 23 19 22 22 24 25 24 24 23 24 25 28 30 33 35 36 38 38 39 41 43 46 46 51 55 56 58 59 60 61 62 62 62 63 63 63 63 63 64 64 64 64 64 63 63 63 63 63 63 63 63 62 62 62 61 61 60 60 59 58 56 55 54 53 52 51 50
33 30 30 30 29 28 27 27 27 29 28 28 24 16 15 18 21 22 21 21 28 21 20 25 27 26 23 23 24 25 26 29 34 36 37 38 39 40 42 46 50 50 50 54 56 58 59 60 61 61 62 62 63 63 63 63 63 64 64 63 63 63 63 63 63 63 63 63 63 62 62 62 62 61 61 61 60 59 57 56 55 54 53 52 50 50
32 27 29 29 28 30 31 28 27 29 30 29 28 21 17 18 20 21 22 23 27 21 19 21 27 26 24 24 25 25 28 30 35 38 39 40 39 42 47 50 52 52 51 54 56 58 59 60 61 61 62 62 62 62 63 63 63 63 64 64 63 63 63 63 63 63 63 63 62 62 62 62 62 62 61 60 59 58 57 56 55 54 53 51 51 50
34 28 30 33 30 31 34 34 34 34 33 32 31 27 19 19 20 21 21 25 27 25 26 26 25 25 25 25 26 27 30 35 39 40 39 39 42 47 48 50 53 54 53 55 57 58 59 60 61 61 61 62 62 62 62 62 63 63 63 63 63 63 63 63 63 63 63 62 62 62 62 62 62 61 61 60 59 58 57 56 55 53 52 51 51 50
33 28 32 33 31 30 32 35 35 35 33 30 32 32 26 21 22 23 24 26 29 26 26 27 26 24 25 26 27 30 37 41 40 35 37 41 44 46 48 50 53 55 56 56 58 58 59 60 61 61 61 61 62 62 62 62 63 63 63 63 63 63 63 63 63 63 62 62 62 62 62 62 62 61 60 59 58 57 56 55 54 53 52 51 50 50
34 30 35 32 28 26 32 34 33 34 32 31 29 30 29 23 22 24 23 26 24 23 25 26 24 23 23 25 37 39 38 36 35 36 39 41 41 45 47 50 53 55 56 57 58 59 59 60 60 61 61 61 62 62 62 62 62 62 62 63 63 63 63 63 63 63 63 62 62 62 62 62 61 61 60 59 58 57 56 55 54 53 52 51 50 50
34 32 26 27 27 25 30 34 32 32 28 23 23 27 29 26 24 27 24 27 27 26 24 23 20 21 23 30 34 35 36 35 36 36 39 39 40 44 48 50 53 56 56 57 58 59 59 60 60 61 61 61 62 62 62 62 62 62 62 62 63 63 63 63 63 63 63 62 62 62 62 61 61 60 59 59 57 56 55 54 54 53 52 51 50 49
35 33 28 31 25 25 29 31 32 26 18 18 30 32 35 31 29 24 25 26 27 28 24 24 23 24 29 35 36 36 34 34 37 38 40 41 42 44 47 50 53 55 55 57 58 59 60 60 61 61 61 61 62 62 62 62 62 62 62 63 63 63 63 63 63 63 62 62 62 62 61 61 60 60 59 58 57 56 55 54 53 53 52 51 50 49
33 30 28 33 27 27 28 28 23 17 19 32 36 40 41 40 38 39 39 29 31 34 35 34 30 28 28 30 38 39 39 39 37 37 38 39 42 45 47 49 52 53 56 57 58 59 59 60 60 60 61 61 61 61 61 62 62 62 62 63 63 63 63 63 63 62 62 62 62 61 61 61 60 59 58 57 56 55 54 54 53 52 51 50 49 48
29 29 29 29 29 26 25 24 20 21 29 32 35 40 42 40 39 40 35 37 41 42 44 43 44 40 35 34 42 42 34 34 36 37 38 39 41 44 47 49 51 54 55 57 58 59 59 60 60 60 60 61 61 61 61 61 62 62 62 63 63 63 63 63 63 62 62 62 62 61 61 60 60 59 58 57 56 55 54 53 53 52 51 50 49 48
36 34 30 29 31 26 26 26 27 29 28 29 33 38 40 38 39 38 33 35 41 44 46 45 44 45 46 43 44 44 40 36 34 32 34 35 41 45 46 48 51 53 55 57 59 59 60 60 60 60 60 61 61 61 61 62 62 62 62 62 62 63 63 62 62 62 62 62 61 61 60 60 59 58 57 56 55 55 54 53 52 52 51 50 49 48
40 34 33 29 27 29 27 27 27 24 18 25 35 40 43 43 43 43 41 36 41 44 46 46 45 45 45 47 48 49 43 35 30 29 31 34 36 38 39 47 52 53 55 56 58 59 59 59 60 59 61 60 61 61 62 62 62 62 61 61 62 62 62 62 62 62 62 62 61 61 60 60 59 58 57 56 55 54 54 53 53 51 50 50 48 47
40 38 36 30 30 30 29 28 27 24 24 28 34 39 41 44 44 44 38 33 40 44 46 47 46 46 46 47 47 49 45 36 31 32 33 35 34 34 33 34 46 54 54 55 57 59 59 60 60 60 60 61 60 61 62 62 61 61 61 61 62 62 62 62 62 62 61 61 61 60 60 60 59 58 57 56 55 55 54 53 52 51 50 50 49 48
36 33 31 31 31 31 30 29 27 26 27 33 39 39 40 44 44 35 25 24 35 45 47 47 46 46 47 48 48 48 45 36 31 30 37 44 44 43 43 42 43 49 54 55 57 59 60 60 60 60 60 60 61 61 61 62 61 61 61 61 61 61 61 61 62 62 62 61 61 60 60 59 58 58 57 56 55 55 54 53 52 51 50 50 49 48
33 32 32 31 31 31 31 30 28 28 33 39 40 41 41 44 39 24 22 31 42 45 48 47 47 47 48 48 49 46 46 43 43 46 51 51 50 49 49 50 47 47 50 55 57 55 59 60 60 60 61 61 61 61 62 62 61 61 61 61 61 61 61 62 62 62 61 61 60 60 59 59 58 57 57 56 56 54 53 52 51 50 50 49 49 47
32 33 32 31 31 30 31 30 28 30 36 41 43 42 44 39 30 30 36 43 45 46 47 48 47 48 48 48 49 49 50 51 51 52 52 51 51 51 52 53 51 51 53 54 55 56 59 59 60 60 61 61 61 61 61 61 61 60 60 61 61 61 62 62 61 61 61 60 60 59 59 58 58 58 57 56 55 53 52 52 51 50 50 50 50 47
33 31 29 30 32 32 31 29 30 27 33 43 43 41 44 35 34 42 45 47 46 46 47 48 48 48 50 49 50 50 51 51 51 51 51 51 51 52 52 54 52 51 51 52 53 56 58 59 59 60 60 61 61 61 61 61 60 60 60 60 61 61 61 61 61 61 60 60 59 59 58 58 57 57 56 55 54 53 52 51 50 50 49 48 49 48
37 29 29 32 36 30 31 29 29 34 40 44 43 37 42 44 46 47 48 45 46 47 47 47 48 49 49 49 49 50 51 51 51 51 50 51 51 52 53 53 54 54 54 55 55 55 57 59 60 59 60 61 61 61 61 61 59 59 59 60 61 61 61 61 61 61 60 59 59 58 58 57 56 55 55 54 54 53 51 50 50 49 49 48 49 48
34 30 33 32 37 34 33 35 39 41 43 45 45 45 46 47 48 49 48 47 46 47 48 48 48 49 49 50 50 50 51 51 51 50 50 50 51 52 53 53 54 55 55 54 55 56 57 58 59 59 59 60 60 61 61 61 59 58 59 60 61 60 60 60 60 60 59 59 58 57 57 56 55 54 53 53 53 51 51 50 49 49 48 48 48 48
30 33 39 38 36 40 41 41 41 43 43 42 46 48 47 48 49 50 48 47 48 49 49 49 49 49 49 50 50 51 51 51 50 51 51 51 52 53 53 53 53 54 54 54 54 55 57 57 58 59 58 59 60 61 61 61 61 59 59 60 60 61 60 60 59 59 59 58 57 56 56 55 54 53 52 52 53 52 51 50 50 49 49 49 48 48
28 33 33 29 31 36 32 36 35 35 38 41 42 47 48 49 49 49 49 49 49 50 50 50 50 49 49 50 50 51 51 52 52 52 52 52 52 53 53 53 54 54 54 54 55 54 55 57 58 58 58 58 59 61 61 61 60 59 59 59 60 60 60 59 59 57 57 57 56 55 55 54 53 53 52 52 52 52 51 50 49 48 47 47 47 46
25 34 27 31 34 33 33 31 33 36 37 38 44 46 47 48 49 49 50 50 50 50 50 50 50 49 49 49 50 51 51 52 52 52 52 52 52 53 53 53 53 53 52 54 55 55 55 55 55 56 57 57 57 57 58 58 58 59 59 59 58 58 57 57 57 57 56 55 54 54 55 54 47 50 52 52 52 51 50 49 49 48 47 47 46 46
26 31 27 33 31 31 31 31 31 29 31 36 37 42 46 47 48 48 49 50 50 49 49 50 50 49 49 49 50 51 52 52 52 52 52 52 52 53 53 53 52 52 53 54 53 54 55 55 55 55 55 56 57 58 58 58 58 59 59 59 59 58 57 56 54 56 55 54 54 53 51 52 51 52 52 52 51 51 50 49 48 48 48 47 47 47
29 28 31 29 27 26 26 26 28 29 29 31 33 33 36 44 48 48 49 49 49 49 49 49 49 49 49 49 49 51 51 52 52 52 52 52 53 52 52 52 53 53 53 53 53 54 54 54 55 55 55 56 56 57 57 57 57 58 58 59 58 58 57 55 55 55 54 54 53 53 52 51 51 52 51 51 50 49 47 40 44 47 48 47 44 43
27 27 26 26 26 26 27 28 30 32 33 32 32 32 34 42 48 48 48 48 49 49 49 48 48 48 48 49 49 51 52 51 51 52 52 52 52 52 51 51 52 52 53 52 53 53 54 54 54 55 55 56 56 56 56 56 57 57 57 58 58 57 56 55 55 54 54 53 52 51 51 51 51 51 51 51 50 49 47 46 44 40 42 43 42 41